Aiken, SC

8:53 PM EDT on August 29, 2016 (GMT -0400)
Aiken Municipal

Weather History for KAIK - January, 2013

Change the Weather History Date:

Thursday, January 3, 2013

  Actual Average Record
Temperature  
Mean Temperature 46 °F -  
Max Temperature 50 °F 56 °F 59 °F (2015)
Min Temperature 42 °F 35 °F 24 °F (2014)
Degree Days  
Heating Degree Days 19    
Moisture  
Dew Point 45 °F    
Average Humidity 94    
Maximum Humidity 100    
Minimum Humidity 76    
Precipitation  
Precipitation 0.00 in - - ()
Sea Level Pressure  
Sea Level Pressure 30.20 in    
Wind  
Wind Speed 3 mph (NNW)    
Max Wind Speed 8 mph    
Max Gust Speed -    
Averages and records for this station are not official NWS values.
T = Trace of Precipitation, MM = Missing Value Source: NWS Daily Summary

Daily Weather History Graph

Daily Weather History Graph

Search for Another Location

Airport or City:

Trip Planner

Search our weather history database for the weather conditions in past years. The results will help you decide how hot, cold, wet, or windy it might be!

Date:

Astronomy

Jan. 03, 2013 Rise Set
Actual Time 7:31 AM EST 5:31 PM EST
Civil Twilight 7:04 AM EST 5:58 PM EST
Nautical Twilight 6:33 AM EST 6:29 PM EST
Astronomical Twilight 6:03 AM EST 6:59 PM EST
Moon 11:44 PM EST (1/3) 11:01 AM EST (1/3)
Length of Visible Light 10h 54m
Length of Day
9h 59m
Waning Gibbous, 65% of the Moon is Illuminated
Jan 3
Waning Gibbous
Jan 4
Last Quarter
Jan 11
New
Jan 18
First Quarter
Jan 26
Full

Hourly Weather History & Observations

Time (EST) Temp. Windchill Dew Point Humidity Pressure Visibility Wind Dir Wind Speed Gust Speed Precip Events Conditions
12:15 AM 50.0 °F - 50.0 °F 100% 30.14 in - East 5.8 mph - N/A   Overcast
12:35 AM 50.0 °F - 50.0 °F 100% 30.13 in - East 4.6 mph - N/A   Overcast
12:55 AM 48.2 °F - 48.2 °F 100% 30.12 in - East 5.8 mph - N/A   Overcast
1:15 AM 48.2 °F - 48.2 °F 100% 30.12 in - ESE 3.5 mph - N/A   Overcast
1:35 AM 48.2 °F - 48.2 °F 100% 30.12 in - ESE 3.5 mph - N/A   Unknown
1:55 AM 48.2 °F - 48.2 °F 100% 30.14 in - SE 3.5 mph - N/A   Overcast
2:15 AM 48.2 °F - 48.2 °F 100% 30.13 in - Calm Calm - N/A   Overcast
2:35 AM 48.2 °F - 48.2 °F 100% 30.14 in - Calm Calm - N/A   Unknown
2:55 AM 48.2 °F - 48.2 °F 100% 30.14 in - Calm Calm - N/A   Overcast
3:15 AM 48.2 °F - 48.2 °F 100% 30.14 in - Calm Calm - N/A   Overcast
3:35 AM 48.2 °F - 48.2 °F 100% 30.13 in - ESE 3.5 mph - N/A   Overcast
3:55 AM 48.2 °F - 48.2 °F 100% 30.14 in - Calm Calm - N/A   Overcast
4:15 AM 48.2 °F - 48.2 °F 100% 30.14 in - Calm Calm - N/A   Overcast
4:35 AM 46.4 °F 45.2 °F - N/A% 30.14 in - SE 3.5 mph - N/A   Overcast
4:55 AM 46.4 °F 44.3 °F - N/A% 30.14 in - SE 4.6 mph - N/A   Overcast
5:15 AM 46.4 °F 45.2 °F - N/A% 30.15 in - West 3.5 mph - N/A   Overcast
5:35 AM 46.4 °F - - N/A% 30.15 in - Calm Calm - N/A   Overcast
5:55 AM 46.4 °F - - N/A% 30.16 in - Calm Calm - N/A   Overcast
6:15 AM 48.2 °F - - N/A% 30.17 in - Calm Calm - N/A   Overcast
6:35 AM 48.2 °F - - N/A% 30.17 in - Calm Calm - N/A   Overcast
6:55 AM 48.2 °F - - N/A% 30.18 in - Calm Calm - N/A   Unknown
7:15 AM 46.4 °F - - N/A% 30.18 in - Calm Calm - N/A   Unknown
7:35 AM 46.4 °F - - N/A% 30.18 in - Calm Calm - N/A   Unknown
7:55 AM 46.4 °F - - N/A% 30.18 in - Calm Calm - N/A   Unknown
8:15 AM 46.4 °F 45.2 °F - N/A% 30.18 in - SSW 3.5 mph - N/A   Unknown
8:35 AM 46.4 °F - - N/A% 30.18 in - Calm Calm - N/A   Unknown
8:55 AM 46.4 °F - - N/A% 30.18 in - Calm Calm - N/A   Unknown
9:15 AM 48.2 °F - - N/A% 30.18 in - Calm Calm - N/A   Overcast
9:35 AM 48.2 °F - - N/A% 30.19 in - Calm Calm - N/A   Unknown
9:55 AM 48.2 °F - - N/A% 30.20 in - WSW 3.5 mph - N/A   Unknown
10:15 AM 48.2 °F - - N/A% 30.20 in - Calm Calm - N/A   Unknown
10:35 AM 48.2 °F - - N/A% 30.21 in - Calm Calm - N/A   Unknown
10:55 AM 48.2 °F - - N/A% 30.21 in - SW 5.8 mph - N/A   Unknown
11:15 AM 48.2 °F - 48.2 °F 100% 30.20 in - South 4.6 mph - N/A   Overcast
11:35 AM 48.2 °F - 48.2 °F 100% 30.20 in - SSW 3.5 mph - N/A   Overcast
11:55 AM 50.0 °F - 50.0 °F 100% 30.19 in - SSW 3.5 mph - N/A   Overcast
12:15 PM 50.0 °F - 46.4 °F 87% 30.19 in - WSW 4.6 mph - N/A   Overcast
12:35 PM 50.0 °F - 48.2 °F 94% 30.19 in - West 8.1 mph - N/A   Unknown
12:55 PM 48.2 °F - 44.6 °F 87% 30.18 in - SW 4.6 mph - N/A   Overcast
1:15 PM 48.2 °F - 44.6 °F 87% 30.16 in - SSW 4.6 mph - N/A   Unknown
1:35 PM 50.0 °F - 46.4 °F 87% 30.16 in - WSW 4.6 mph - N/A   Unknown
1:55 PM 50.0 °F - 44.6 °F 82% 30.17 in - West 6.9 mph - N/A   Unknown
2:15 PM 50.0 °F - 44.6 °F 82% 30.15 in - West 3.5 mph - N/A   Overcast
2:55 PM 50.0 °F - 42.8 °F 76% 30.17 in - WNW 4.6 mph - N/A   Overcast
3:15 PM 50.0 °F - 42.8 °F 76% 30.16 in - Calm Calm - N/A   Mostly Cloudy
3:35 PM 50.0 °F - 42.8 °F 76% 30.16 in - Calm Calm - N/A   Mostly Cloudy
3:55 PM 50.0 °F - 42.8 °F 76% 30.17 in - Calm Calm - N/A   Scattered Clouds
4:35 PM 48.2 °F - 41.0 °F 76% 30.20 in - WNW 4.6 mph - N/A   Clear
4:55 PM 48.2 °F - 42.8 °F 82% 30.20 in - NW 3.5 mph - N/A   Clear
5:35 PM 46.4 °F 44.3 °F 42.8 °F 87% 30.22 in - WNW 4.6 mph - N/A   Unknown
5:55 PM 46.4 °F 45.2 °F 42.8 °F 87% 30.23 in - NW 3.5 mph - N/A   Unknown
6:15 PM 44.6 °F 43.1 °F 42.8 °F 93% 30.23 in - NW 3.5 mph - N/A   Unknown
6:35 PM 44.6 °F - 42.8 °F 93% 30.24 in - Calm Calm - N/A   Unknown
7:15 PM 44.6 °F 43.1 °F 42.8 °F 93% 30.26 in - NNW 3.5 mph - N/A   Unknown
7:35 PM 44.6 °F 42.2 °F 44.6 °F 100% 30.26 in - North 4.6 mph - N/A   Unknown
7:55 PM 44.6 °F 42.2 °F 44.6 °F 100% 30.27 in - North 4.6 mph - N/A   Unknown
8:15 PM 44.6 °F 43.1 °F 44.6 °F 100% 30.28 in - North 3.5 mph - N/A   Mostly Cloudy
8:35 PM 44.6 °F 42.2 °F 44.6 °F 100% 30.29 in - NNE 4.6 mph - N/A   Mostly Cloudy
8:55 PM 44.6 °F 40.7 °F 44.6 °F 100% 30.29 in - NE 6.9 mph - N/A   Overcast
9:15 PM 44.6 °F 42.2 °F 44.6 °F 100% 30.30 in - NNE 4.6 mph - N/A   Overcast
9:35 PM 44.6 °F 40.7 °F 44.6 °F 100% 30.30 in - North 6.9 mph - N/A   Overcast
9:55 PM 44.6 °F 40.7 °F 44.6 °F 100% 30.30 in - NNE 6.9 mph - N/A   Overcast
10:15 PM 44.6 °F 40.7 °F 44.6 °F 100% 30.30 in - North 6.9 mph - N/A   Overcast
10:35 PM 44.6 °F 42.2 °F 42.8 °F 93% 30.30 in - North 4.6 mph - N/A   Overcast
10:55 PM 42.8 °F 41.1 °F 42.8 °F 100% 30.30 in - NNE 3.5 mph - N/A   Mostly Cloudy
11:15 PM 42.8 °F 40.1 °F 42.8 °F 100% 30.30 in - NE 4.6 mph - N/A   Overcast
11:35 PM 42.8 °F 40.1 °F 42.8 °F 100% 30.30 in - NE 4.6 mph - N/A   Overcast
11:55 PM 42.8 °F 40.1 °F 41.0 °F 93% 30.30 in - NNE 4.6 mph - N/A   Overcast